Weather Roundup
Issued by NWS Springfield, MO

Home | Current Version | Previous Version | Text Only | Print | Product List | Glossary On
Versions: 1 2 3 4 5 6 7 8 9 10 11 12 13 14 15 16 17 18 19 20 21 22 23 24 25 26 27 28 29 30 31 32 33 34 35 36 37 38 39 40 41 42 43 44 45 46 47 48 49 50
000
NZUS99 KSGF 270859
HRRSGF

HOURLY WEATHER
NATIONAL WEATHER SERVICE SPRINGFIELD MO
400 AM CDT WED MAY 27 2015

......SGF CWA......

CITY           SKY/WX    TMP DP  RH WIND       PRES   REMARKS
SPRINGFIELD    TSTM      66  61  84 S13       30.01R
JOPLIN         CLOUDY    65  62  90 S7        30.01R
WEST PLAINS    CLOUDY    67  63  87 S7        30.02F
ROLLA          CLOUDY    65  63  93 S9        30.00R THUNDER

......SURROUNDING SGF CWA......

CITY           SKY/WX    TMP DP  RH WIND       PRES   REMARKS
CHANUTE        PTCLDY    63  62  97 N9        30.01R
PARSONS        PTCLDY    62  62 100 CALM      30.01R
COFFEYVILLE    PTCLDY    62  62 100 SE6       30.01R
EMPORIA        PTCLDY    60  57  89 W5        30.02R
ROGERS AR      LGT RAIN  68  66  94 SW5       30.04F
SILOAM SPRINGS CLOUDY    66  55  68 SW7       30.05R
HARRISON AR    CLOUDY    69  66  90 S7        30.01F
NEAR YELLVILLE CLOUDY    66  64  94 W3        30.00R

......KANSAS AND MISSOURI......

CITY           SKY/WX    TMP DP  RH WIND       PRES   REMARKS
KANSAS CTY INT MOCLDY    59  55  87 SW5       29.98R
DOWNTOWN KC    PTCLDY    61  55  81 S7        29.99R
COLUMBIA       MOCLDY    63  61  93 S8        29.98R
SEDALIA        PTCLDY    67  62  84 SW9       29.99R
ST JOSEPH      CLEAR     59  54  83 CALM      29.98R
ST LOUIS       MOCLDY    71  61  70 SW13      29.99R
SPIRIT OF STL  PTCLDY   N/A N/A N/A SW3       29.98R
KIRKSVILLE     MOCLDY    62  60  93 SW5       29.95R
WICHITA        MOCLDY    64  61  90 CALM      30.01R
TOPEKA         PTCLDY    61  57  87 W3        30.00R
OLATHE         CLEAR     62  59  90 W3        30.00R

......TENNESSEE......

CITY           SKY/WX    TMP DP  RH WIND       PRES   REMARKS
MEMPHIS        MOCLDY    72  67  84 S12       30.07S
NASHVILLE      CLOUDY    70  68  93 S7        30.13R

......ARKANSAS.......

CITY           SKY/WX    TMP DP  RH WIND       PRES   REMARKS
FAYETTEVILLE   TSTM      64  60  87 S7        30.04R
FT SMITH       LGT RAIN  67  62  84 E3        30.03R
LITTLE ROCK    CLOUDY    69  62  78 SW5       30.03F

......OKLAHOMA.......

CITY           SKY/WX    TMP DP  RH WIND       PRES   REMARKS
TULSA          CLOUDY    68  64  87 S8        29.99S
PONCA CITY     PTCLDY    61  58  90 SE7       30.01R
MCALESTER      CLOUDY    70  68  93 CALM      30.02R
OKLAHOMA CITY  PTCLDY    64  61  90 CALM      30.02R

......IOWA............

CITY           SKY/WX    TMP DP  RH WIND       PRES   REMARKS
DES MOINES     CLOUDY    60  56  86 W7        29.92R
QUAD CITIES    CLEAR     62  58  86 SW9       29.88R

......ILLINOIS........

CITY           SKY/WX    TMP DP  RH WIND       PRES   REMARKS
QUINCY         CLOUDY    66  62  87 S7        29.95R
CHICAGO        PTCLDY    65  61  87 SW9       29.85R



USA.gov is the U.S. government's official web portal to all federal, state and local government web resources and services.